GW2092 Weather Reports


time (UTC)temp
F
wind
direction
speed
knots
gust
knots
rain 1hr
in
rain 24hr
in
rain mn
in
humidity
%
barometer
mb
20260504043048 65 147 0.0 3.5 0.00 0.00 0.00 60 1012.1
20260504041538 65 0 0.0 2.6 0.00 0.00 0.00 59 1012.2
20260504040038 65 214 0.0 4.3 0.00 0.00 0.00 59 1012.2
20260504034536 65 187 0.0 1.7 0.00 0.00 0.00 59 1012.3
20260504033045 65 0 0.0 2.6 0.00 0.00 0.00 60 1012.4
20260504031545 65 0 0.0 1.7 0.00 0.00 0.00 60 1012.4
20260504030043 65 186 0.0 1.7 0.00 0.00 0.00 60 1012.4
20260504024545 65 264 0.0 2.6 0.00 0.00 0.00 61 1012.2
20260504023049 65 0 0.0 1.7 0.00 0.00 0.00 63 1012.0
20260504021547 65 117 0.0 0.9 0.00 0.00 0.00 64 1012.0
20260504020043 65 0 0.0 0.0 0.00 0.00 0.00 63 1011.9
20260504014548 66 160 0.0 0.0 0.00 0.00 0.00 62 1011.9
20260504013050 67 170 0.0 0.0 0.00 0.00 0.00 59 1012.0
20260504011548 69 0 0.0 0.0 0.00 0.00 0.00 57 1011.9
20260504010056 71 0 0.0 0.9 0.00 0.00 0.00 54 1011.8
20260504004605 73 0 0.0 0.9 0.00 0.00 0.00 51 1011.8
20260504003044 74 191 0.0 3.5 0.00 0.00 0.00 48 1011.8
20260504001540 75 0 0.0 2.6 0.00 0.00 0.00 46 1012.0
20260504000042 76 0 0.0 2.6 0.00 0.00 0.00 45 1012.1
20260503234549 76 0 0.0 0.9 0.00 0.00 0.00 45 1012.5
20260503233041 77 298 0.0 1.7 0.00 0.00 0.00 41 1012.6
20260503231537 78 0 0.0 2.6 0.00 0.00 0.00 39 1012.7
20260503230048 80 0 0.0 3.5 0.00 0.00 0.00 36 1012.7
20260503224540 81 180 0.0 4.3 0.00 0.00 0.00 36 1012.8
20260503223041 82 313 0.0 3.5 0.00 0.00 0.00 35 1012.8
20260503221538 83 152 0.0 4.3 0.00 0.00 0.00 39 1012.8
20260503220039 83 126 0.0 2.6 0.00 0.00 0.00 37 1012.9
20260503214546 83 330 0.0 6.1 0.00 0.00 0.00 36 1013.2
20260503213043 83 0 0.0 3.5 0.00 0.00 0.00 36 1013.4
20260503211544 82 179 0.9 5.2 0.00 0.00 0.00 37 1013.6
20260503210041 83 229 0.0 6.1 0.00 0.00 0.00 38 1013.8
20260503204548 83 117 0.0 5.2 0.00 0.00 0.00 36 1014.1
20260503203053 82 237 0.9 7.0 0.00 0.00 0.00 41 1014.4
20260503201538 82 162 0.9 9.6 0.00 0.00 0.00 39 1014.6
20260503200046 82 0 0.9 6.1 0.00 0.00 0.00 41 1014.8
20260503194546 82 221 0.9 5.2 0.00 0.00 0.00 42 1014.9
20260503193045 81 221 0.9 8.7 0.00 0.00 0.00 42 1015.0
20260503191539 81 0 0.9 7.0 0.00 0.00 0.00 44 1015.3
20260503190037 80 128 0.0 7.0 0.00 0.00 0.00 44 1015.4
20260503184539 80 160 0.9 3.5 0.00 0.00 0.00 43 1015.5
20260503183037 80 169 0.9 5.2 0.00 0.00 0.00 43 1015.6
20260503181542 80 0 0.0 5.2 0.00 0.00 0.00 44 1016.0
20260503180052 79 97 0.9 6.1 0.00 0.00 0.00 43 1016.4
20260503174547 78 145 0.0 3.5 0.00 0.00 0.00 46 1016.6
20260503173052 77 215 0.9 6.1 0.00 0.00 0.00 44 1016.9
20260503171543 77 116 1.7 6.1 0.00 0.00 0.00 44 1017.0
20260503081541 39 0 0.0 0.0 0.00 0.00 0.00 88 1019.2
20260503071553 38 0 0.0 0.0 0.00 0.00 0.00 90 1019.6
20260503060109 39 0 0.0 0.0 0.00 0.00 0.00 89 1020.3
20260503054550 39 0 0.0 0.0 0.00 0.00 0.00 88 1020.4
20260503053044 40 0 0.0 0.0 0.00 0.00 0.00 87 1020.4
20260503051549 40 0 0.0 0.0 0.00 0.00 0.00 85 1020.5
20260503050040 40 0 0.0 0.0 0.00 0.00 0.00 84 1020.5
20260503044545 41 0 0.0 0.0 0.00 0.00 0.00 82 1020.5